FW6971 Weather Reports


Display with metric or nautical units.
time (UTC)temp
F
wind
direction
speed
MPH
gust
MPH
rain 1hr
in
rain 24hr
in
rain mn
in
humidity
%
barometer
mb
20260506073030 44 221 5.0 14.0 0.00 0.00 0.00 94 1017.6
20260506071529 45 240 7.0 17.0 0.00 0.00 0.00 94 1017.7
20260506061530 47 227 10.0 20.0 0.00 0.00 0.00 93 1017.5
20260506044532 46 200 11.0 24.0 0.00 0.00 0.00 93 1017.4
20260506043028 45 208 13.0 21.0 0.00 0.00 0.00 93 1017.3
20260506041528 45 219 13.0 24.0 0.00 0.00 0.00 93 1017.4
20260506040043 46 231 11.0 23.0 0.00 0.00 0.00 93 1017.4
20260506034530 47 233 10.0 20.0 0.00 0.00 0.00 92 1017.6
20260506033029 48 252 8.0 18.0 0.00 0.00 0.00 92 1017.7
20260506031528 49 215 10.0 23.0 0.00 0.00 0.00 92 1017.8
20260506030025 49 228 11.0 18.0 0.00 0.00 0.00 92 1017.9
20260506024536 49 218 11.0 20.0 0.00 0.00 0.00 93 1018.0
20260506023030 48 196 9.0 13.0 0.00 0.00 0.00 95 1018.0
20260506021542 47 189 9.0 19.0 0.00 0.00 0.00 94 1017.9
20260506020028 47 215 10.0 19.0 0.00 0.00 0.00 95 1017.7
20260506014528 47 258 11.0 18.0 0.00 0.00 0.00 95 1017.7
20260506013030 46 257 9.0 17.0 0.00 0.00 0.00 96 1017.4
20260506011529 46 220 10.0 18.0 0.00 0.00 0.00 95 1017.2
20260506010039 45 229 11.0 23.0 0.00 0.00 0.00 96 1017.2
20260506004528 45 257 13.0 19.0 0.00 0.00 0.00 96 1016.9
20260506003028 45 218 12.0 23.0 0.00 0.00 0.00 96 1016.6
20260506001530 45 204 13.0 25.0 0.00 0.00 0.00 96 1016.4
20260506000031 45 250 14.0 23.0 0.00 0.00 0.00 96 1016.2
20260505234539 45 232 10.0 21.0 0.00 0.00 0.00 96 1016.0
20260505233033 45 335 13.0 24.0 0.00 0.00 0.00 96 1015.8
20260505231531 45 335 12.0 20.0 0.00 0.00 0.00 96 1015.3
20260505230028 44 246 15.0 23.0 0.00 0.00 0.00 96 1015.4
20260505224531 45 227 14.0 22.0 0.00 0.00 0.00 95 1015.0
20260505223028 45 245 14.0 21.0 0.00 0.00 0.00 94 1015.1
20260505221528 46 254 13.0 21.0 0.00 0.00 0.00 93 1014.7
20260505220027 46 231 11.0 22.0 0.00 0.00 0.00 93 1014.7
20260505214536 46 247 16.0 26.0 0.00 0.00 0.00 92 1014.7
20260505213027 46 230 12.0 23.0 0.00 0.00 0.00 91 1014.7
20260505211539 48 221 14.0 25.0 0.00 0.00 0.00 88 1014.6
20260505210029 51 227 11.0 20.0 0.00 0.00 0.00 85 1014.7
20260505203037 49 247 13.0 25.0 0.00 0.00 0.00 86 1014.9
20260505201528 50 218 17.0 24.0 0.00 0.00 0.00 85 1014.6
20260505200025 50 200 16.0 26.0 0.00 0.00 0.00 85 1014.5
20260505194528 51 190 14.0 27.0 0.00 0.00 0.00 84 1014.2
20260505193027 50 238 16.0 25.0 0.00 0.00 0.00 83 1014.1
20260505191528 52 219 12.0 24.0 0.00 0.00 0.00 80 1013.9
20260505190027 55 225 14.0 22.0 0.00 0.00 0.00 77 1013.8
20260505184538 56 213 13.0 23.0 0.00 0.00 0.00 75 1013.6
20260505183037 56 200 13.0 24.0 0.00 0.00 0.00 76 1013.5
20260505181530 53 207 16.0 23.0 0.00 0.00 0.00 78 1013.6
20260505180029 55 182 12.0 20.0 0.00 0.00 0.00 76 1013.6
20260505174529 55 206 12.0 24.0 0.00 0.00 0.00 77 1013.8
20260505173026 54 236 16.0 28.0 0.00 0.00 0.00 77 1013.7
20260505171528 54 220 14.0 24.0 0.00 0.00 0.00 76 1013.8
20260505170053 53 335 13.0 21.0 0.00 0.00 0.00 78 1013.7
20260505164535 52 212 12.0 22.0 0.00 0.00 0.00 79 1013.8
20260505163028 53 190 13.0 22.0 0.00 0.00 0.00 79 1013.6
20260505161526 51 213 15.0 24.0 0.00 0.00 0.00 81 1013.6
20260505153028 49 227 15.0 27.0 0.00 0.00 0.00 83 1013.3
20260505151535 49 203 15.0 27.0 0.00 0.00 0.00 82 1013.2
20260505124528 49 221 10.0 17.0 0.00 0.01 0.00 82 1012.8
20260505123030 49 201 8.0 17.0 0.00 0.01 0.00 81 1012.7
20260505121536 50 225 8.0 15.0 0.00 0.01 0.00 81 1012.8
20260505120029 50 216 9.0 16.0 0.00 0.01 0.00 82 1012.5
20260505114529 49 205 11.0 21.0 0.00 0.01 0.00 84 1012.4
20260505113039 47 200 11.0 17.0 0.00 0.01 0.00 85 1012.4
20260505111540 47 222 11.0 18.0 0.00 0.01 0.00 86 1012.3
20260505091526 41 335 6.0 12.0 0.00 0.01 0.00 92 1010.9
20260505090032 40 229 8.0 12.0 0.00 0.01 0.00 93 1010.8
20260505084530 41 205 7.0 12.0 0.00 0.02 0.00 92 1010.5
20260505083026 41 215 8.0 12.0 0.00 0.02 0.00 92 1010.3
20260505081530 41 250 8.0 13.0 0.00 0.02 0.00 92 1010.0
20260505080030 41 229 8.0 14.0 0.00 0.02 0.00 92 1009.8
20260505074526 41 218 9.0 14.0 0.00 0.03 0.00 92 1009.5